Flag for Canada Weather past 2 weeks in Delta, British Columbia, Canada

59 °F

Partly sunny.

Feels Like: 58 °F
Forecast: 48 / 66 °F
Wind: 8 mph from Southwest

Location: Vancouver International Airport

Current Time: Oct 6, 2015 at 1:44:33 PM

Latest Report: Oct 6, 2015 at 1:00 PM

Visibility: 20 mi

Pressure: 29.99 "Hg

Humidity: 82%

Dew point: 54 °F

Location of DeltaLocation

Historic Weather in Delta — Graph


Delta temperature yesterday

Maximum temperature yesterday: 61 °F (at 2:00 PM)
Minimum temperature yesterday: 45 °F (at 1:00 AM)
Average temperature yesterday: 53 °F

Past Weeks' High & Low Weather Summary

High63 °F (Sep 23, 1:00 PM)100% (Sep 25, 10:00 PM)30.24 "Hg (Sep 25, 10:00 PM)
Low43 °F (Sep 27, 5:00 AM)45% (Sep 23, 3:00 PM)29.87 "Hg (Oct 5, 7:00 PM)
Average54 °F85%30.03 "Hg
* Reported Sep 21 12:00 Noon — Oct 6 12:00 Noon, Delta, Weather by CustomWeather, © 2015

Note: Actual official high and low records may vary slightly from our data, if they occured in-between our weather recording intervals... More about our weather records


Delta weather history for previous 24 hours

Time TempWeatherWind HumidityBarometerVisibility
12:00 PM
Tue, Oct 6
63 °FPartly sunny.5 mph64%29.98 "Hg20 mi
11:00 AM61 °FBroken clouds.No wind68%29.99 "Hg20 mi
10:00 AM57 °FBroken clouds.6 mph77%29.97 "Hg20 mi
9:00 AM54 °FBroken clouds.9 mph94%29.97 "Hg20 mi
8:52 AM54 °FBroken clouds.9 mph88%29.96 "Hg20 mi
8:00 AM54 °FPassing clouds.8 mph88%29.94 "Hg20 mi
7:00 AM50 °FPartly cloudy.2 mph94%29.95 "Hg20 mi
6:00 AM48 °FPassing clouds.6 mph100%29.93 "Hg20 mi
5:00 AM50 °FPassing clouds.3 mph88%29.91 "Hg20 mi
4:00 AM48 °FPassing clouds.5 mph94%29.91 "Hg20 mi
3:00 AM50 °FPassing clouds.6 mph88%29.91 "Hg20 mi
2:00 AM50 °FPassing clouds.5 mph82%29.90 "Hg20 mi
1:00 AM50 °FPassing clouds.2 mph88%29.90 "Hg20 mi
12:00 AM48 °FFog.2 mph87%29.90 "Hg20 mi
11:00 PM
Mon, Oct 5
50 °FPassing clouds.2 mph94%29.89 "Hg20 mi
10:00 PM50 °FFog.5 mph100%29.88 "Hg20 mi
9:00 PM50 °FPassing clouds.3 mph100%29.88 "Hg20 mi
8:00 PM54 °FPassing clouds.5 mph100%29.88 "Hg20 mi
7:00 PM54 °FPartly sunny.2 mph94%29.87 "Hg30 mi
6:00 PM55 °FPartly sunny.6 mph88%29.87 "Hg30 mi
5:00 PM61 °FPartly sunny.6 mph68%29.87 "Hg30 mi
4:00 PM61 °FPartly sunny.7 mph77%29.89 "Hg30 mi
3:00 PM61 °FPartly sunny.8 mph72%29.90 "Hg30 mi
2:00 PM61 °FPartly sunny.8 mph72%29.91 "Hg30 mi
1:00 PM59 °FPartly sunny.8 mph77%29.93 "Hg30 mi
Weather by CustomWeather, © 2015

See weather overviewHow to use our weather pages